Mitchell, SD

5:08 AM CST on November 15, 2019 (GMT -0600)
Mitchell Municipal

Weather History for KMHE - May, 2019

Change the Weather History Date:

Wednesday, May 29, 2019

  Actual Average Record
Temperature  
Mean Temperature 63 °F 63 °F  
Max Temperature 72 °F 74 °F 105 °F (1934)
Min Temperature 53 °F 52 °F 28 °F (1947)
Degree Days  
Heating Degree Days 2 4  
Month to date heating degree days 291 203  
Since 1 July heating degree days 7979 7203  
Cooling Degree Days 0 2  
Month to date cooling degree days 7 32  
Year to date cooling degree days 7 34  
Growing Degree Days 12 (Base 50)    
Moisture  
Dew Point 49 °F    
Average Humidity 62    
Maximum Humidity 83    
Minimum Humidity 41    
Precipitation  
Precipitation 0.03 in 0.15 in 2.36 in (1985)
Month to date precipitation 4.32 2.62  
Year to date precipitation 11.90 6.42  
Snow  
Snow 0.00 in - 0.00 in ()
Month to date snowfall 0.0  
Since 1 July snowfall 67.6  
Snow Depth 0.00 in    
Sea Level Pressure  
Sea Level Pressure 29.80 in    
Wind  
Wind Speed 6 mph (NW)    
Max Wind Speed 12 mph    
Max Gust Speed 17 mph    
Visibility 10 miles    
Events Rain    
T = Trace of Precipitation, MM = Missing Value Source: NWS Daily Summary

Daily Weather History Graph

Daily Weather History Graph

Search for Another Location

Airport or City:

Astronomy

May. 29, 2019 Rise Set
Actual Time 5:54 AM CDT 9:04 PM CDT
Civil Twilight 5:20 AM CDT 9:39 PM CDT
Nautical Twilight 4:35 AM CDT 10:24 PM CDT
Astronomical Twilight 3:41 AM CDT 11:19 PM CDT
Moon 3:47 AM CDT (5/29) 4:02 PM CDT (5/29)
Length of Visible Light 16h 19m
Length of Day
15h 09m
Waning Crescent, 23% of the Moon is Illuminated
May 29
Waning Crescent
Jun 3
New
Jun 10
First Quarter
Jun 17
Full
Jun 25
Last Quarter

Hourly Weather History & Observations

Time (CDT) Temp. Dew Point Humidity Pressure Visibility Wind Dir Wind Speed Gust Speed Precip Events Conditions
12:53 AM 57.9 °F 51.1 °F 78% 29.80 in 10.0 mi North 9.2 mph - 0.00 in   Overcast
1:53 AM 57.0 °F 50.0 °F 77% 29.79 in 10.0 mi North 8.1 mph - 0.00 in Rain Light Rain
2:53 AM 57.9 °F 48.0 °F 70% 29.78 in 10.0 mi NNE 9.2 mph - 0.00 in   Overcast
3:53 AM 55.9 °F 48.9 °F 77% 29.79 in 10.0 mi NNW 6.9 mph - 0.00 in   Overcast
4:53 AM 55.9 °F 48.9 °F 77% 29.79 in 10.0 mi NNW 6.9 mph - N/A   Overcast
5:53 AM 55.0 °F 48.0 °F 77% 29.80 in 10.0 mi NNW 9.2 mph - N/A   Mostly Cloudy
6:53 AM 54.0 °F 48.0 °F 80% 29.82 in 10.0 mi North 4.6 mph - N/A   Overcast
7:53 AM 53.1 °F 46.9 °F 80% 29.82 in 10.0 mi NNW 4.6 mph - 0.03 in Rain Light Rain
8:53 AM 55.0 °F 46.9 °F 74% 29.83 in 10.0 mi North 10.4 mph - 0.00 in   Overcast
9:53 AM 55.9 °F 48.9 °F 77% 29.85 in 10.0 mi NNW 5.8 mph - N/A   Overcast
10:53 AM 59.0 °F 48.9 °F 69% 29.83 in 10.0 mi WNW 8.1 mph - N/A   Clear
11:53 AM 60.1 °F 48.0 °F 64% 29.85 in 10.0 mi WNW 4.6 mph - N/A   Scattered Clouds
12:53 PM 63.0 °F 46.9 °F 56% 29.85 in 10.0 mi Calm Calm - N/A   Partly Cloudy
1:53 PM 64.0 °F 46.0 °F 52% 29.83 in 10.0 mi WSW 5.8 mph - N/A   Clear
2:53 PM 66.9 °F 46.9 °F 49% 29.81 in 10.0 mi West 3.5 mph - N/A   Clear
3:53 PM 71.1 °F 46.9 °F 42% 29.79 in 10.0 mi WNW 5.8 mph - N/A   Clear
4:53 PM 71.1 °F 46.9 °F 42% 29.79 in 10.0 mi NNE 3.5 mph - N/A   Mostly Cloudy
5:53 PM 69.1 °F 46.9 °F 45% 29.78 in 10.0 mi Calm Calm - N/A   Scattered Clouds
6:53 PM 66.0 °F 52.0 °F 60% 29.77 in 10.0 mi SW 5.8 mph - N/A   Scattered Clouds
7:53 PM 66.0 °F 53.1 °F 63% 29.76 in 10.0 mi WSW 5.8 mph - N/A   Clear
8:53 PM 64.0 °F 54.0 °F 70% 29.77 in 10.0 mi South 4.6 mph - N/A   Partly Cloudy
9:53 PM 63.0 °F 54.0 °F 72% 29.78 in 10.0 mi SSW 6.9 mph - N/A   Scattered Clouds
10:53 PM 61.0 °F 54.0 °F 78% 29.79 in 10.0 mi SSW 6.9 mph - N/A   Clear
11:53 PM 59.0 °F 53.1 °F 81% 29.77 in 10.0 mi SSW 6.9 mph - N/A   Clear